Location: Banff
(51.1670°N, 115.5670°W)
Time: 01:09:19
(UTC-07:00)

Amateur Radio Satellites - All Passes

Search period start: 04 December 2016 00:39
Search period end: 05 December 2016 00:39
Location: Banff, 51.1670°N, 115.5670°W

Satellite Date Start Highest point End Downlink Frequencies (MHz)
Time Altitude Azimuth
NANOSAT C BR1 04 Dec 00:40:11 00:44:27 82° 104° (ESE) 00:48:41 145.865
QB50P2 04 Dec 00:43:35 00:47:53 82° 285° (WNW) 00:52:07 145.880/145.840
POLYITAN 1 04 Dec 00:44:11 00:48:29 85° 286° (WNW) 00:52:43 437.675
O/OREOS (USA 219) 04 Dec 00:53:38 00:56:53 19° 42° (NE) 01:00:06 437.305
QB50P1 04 Dec 00:58:07 01:02:22 64° 288° (WNW) 01:06:33 145.935-145.965
SO-50 04 Dec 00:59:37 01:02:44 17° 348° (NNW) 01:05:50 436.795
CUBEBUG 1 04 Dec 01:01:43 01:04:05 14° 273° (W) 01:06:28 437.445
ITUPSAT 1 04 Dec 01:03:34 01:07:13 22° 58° (ENE) 01:10:52 437.325
DUCHIFAT 1 04 Dec 01:03:47 01:07:59 64° 288° (WNW) 01:12:09 145.980
VELOX 1 04 Dec 01:05:16 01:08:18 18° 270° (W) 01:11:22 145.980
Oscar 19 04 Dec 01:07:29 01:11:10 19° 89° (E) 01:14:50 437.125/150
UNISAT 6 04 Dec 01:09:28 01:10:45 11° 308° (NW) 01:12:02 437.425
JAS-2 04 Dec 01:11:24 01:16:25 49° 293° (WNW) 01:21:27 435.910
POPSAT HIP 1 04 Dec 01:19:34 01:23:35 41° 292° (WNW) 01:27:34 437.405
DX 1 04 Dec 01:26:40 01:29:44 19° 269° (W) 01:32:49 434.975-435.025
Cosmos 2499 04 Dec 01:34:58 01:43:32 76° 96° (E) 01:52:27 435.465 / 435.565
UKube-1 04 Dec 01:38:43 01:41:42 18° 269° (W) 01:44:43 .
AUBIESAT-1 04 Dec 01:44:03 01:48:12 71° 66° (ENE) 01:52:40 437.475
TISAT 1 04 Dec 01:49:58 01:53:58 40° 262° (W) 01:58:01 437.305
M-CUBED/EXP-1 PRIME 04 Dec 01:54:14 01:58:22 79° 252° (WSW) 02:02:51 437.505
MOZHAYETS 4 04 Dec 02:05:18 02:08:41 21° 59° (ENE) 02:12:05
SWISSCUBE 04 Dec 02:09:28 02:14:14 81° 73° (ENE) 02:19:02 437.505
BUGSAT 1 04 Dec 02:11:00 02:14:50 34° 294° (WNW) 02:18:37 437.445
BEESAT 04 Dec 02:13:46 02:18:33 80° 72° (ENE) 02:23:21 436.000
GONETS M04 04 Dec 02:15:46 02:24:30 77° 282° (WNW) 02:33:16
NANOSAT C BR1 04 Dec 02:17:12 02:19:36 15° 304° (WNW) 02:22:01 145.865
QB50P2 04 Dec 02:21:04 02:22:59 13° 305° (NW) 02:24:54 145.880/145.840
POLYITAN 1 04 Dec 02:21:35 02:23:37 13° 305° (NW) 02:25:39 437.675
Gurwin Techsat 1B 04 Dec 02:22:46 02:27:51 43° 98° (E) 02:32:53 435.225
O/OREOS (USA 219) 04 Dec 02:32:23 02:36:54 84° 246° (WSW) 02:41:23 437.305
QB50P1 04 Dec 02:36:36 02:37:18 10° 308° (NW) 02:37:59 145.935-145.965
ITUPSAT 1 04 Dec 02:39:55 02:44:40 63° 258° (WSW) 02:49:26 437.325
SO-50 04 Dec 02:41:48 02:44:54 17° 13° (NNE) 02:47:58 436.795
DUCHIFAT 1 04 Dec 02:42:11 02:42:50 10° 308° (NW) 02:43:30 145.980
Oscar 19 04 Dec 02:45:52 02:51:03 74° 288° (WNW) 02:56:14 437.125/150
KKS-1 04 Dec 02:52:19 02:56:02 26° 62° (ENE) 02:59:46 437.445
STARS 04 Dec 03:05:36 03:08:43 19° 58° (ENE) 03:11:50 437.465
ITAMSAT 1 04 Dec 03:09:19 03:13:47 28° 94° (E) 03:18:12 435.822/435.867
AO-85 04 Dec 03:19:11 03:23:45 43° 123° (ESE) 03:28:02 145.980
AUBIESAT-1 04 Dec 03:20:30 03:23:09 16° 266° (W) 03:25:54 437.475
Cosmos 2499 04 Dec 03:29:57 03:37:36 33° 300° (WNW) 03:45:29 435.465 / 435.565
M-CUBED/EXP-1 PRIME 04 Dec 03:32:39 03:33:40 11° 270° (W) 03:34:43 437.505
CUBESAT XI-V 04 Dec 03:38:08 03:41:53 26° 62° (ENE) 03:45:40 437.345
MOZHAYETS 4 04 Dec 03:40:54 03:45:28 63° 259° (W) 03:50:01
AO-7 04 Dec 03:45:15 03:52:57 38° 96° (E) 04:00:36 29.400- 29.500
SWISSCUBE 04 Dec 03:49:49 03:52:39 16° 272° (W) 03:55:29 437.505
YUBILEINY 04 Dec 03:51:02 03:54:14 12° 36° (NE) 03:57:27 435.215
BEESAT 04 Dec 03:54:04 03:56:56 16° 272° (W) 03:59:49 436.000
Gurwin Techsat 1B 04 Dec 04:02:55 04:07:44 35° 297° (WNW) 04:12:31 435.225
O/OREOS (USA 219) 04 Dec 04:13:57 04:15:32 12° 263° (W) 04:17:06 437.305
GONETS M04 04 Dec 04:16:32 04:23:02 22° 308° (NW) 04:29:34
SO-50 04 Dec 04:22:14 04:26:35 39° 36° (NE) 04:30:49 436.795
Oscar 19 04 Dec 04:26:39 04:29:33 15° 308° (NW) 04:32:27 437.125/150
KKS-1 04 Dec 04:28:06 04:32:23 45° 261° (W) 04:36:44 437.445
Cosmos 2504 04 Dec 04:30:33 04:32:54 11° 33° (NNE) 04:35:13 435.465 / 435.565
STARS 04 Dec 04:40:13 04:44:38 67° 258° (WSW) 04:49:05 437.465
ITAMSAT 1 04 Dec 04:48:29 04:53:31 50° 293° (WNW) 04:58:30 435.822/435.867
AO-85 04 Dec 04:59:49 05:04:16 39° 322° (NW) 05:08:24 145.980
CUBESAT XI-V 04 Dec 05:14:36 05:19:02 48° 261° (W) 05:23:31 437.345
GOMX 1 04 Dec 05:27:38 05:31:41 21° 88° (E) 05:35:44 467.674
HORYU 2 04 Dec 05:28:37 05:32:24 26° 94° (E) 05:36:08 437.375
Cosmos 2499 04 Dec 05:32:52 05:34:21 10° 328° (NNW) 05:35:50 435.465 / 435.565
AO-7 04 Dec 05:37:57 05:46:11 64° 298° (WNW) 05:54:24 29.400- 29.500
BRITE-PL 04 Dec 05:39:32 05:44:39 49° 98° (E) 05:50:02 437.365/2234.400
YUBILEINY 04 Dec 05:46:04 05:54:17 41° 65° (ENE) 06:02:28 435.215
BEESAT 3 04 Dec 05:49:58 05:52:59 21° 116° (ESE) 05:56:00 437.485
DOVE 4 04 Dec 05:50:16 05:53:18 15° 84° (E) 05:56:18 437.250
LilacSat-2 04 Dec 05:54:58 05:57:03 14° 89° (E) 05:59:07 437.200
NOAA 18 04 Dec 05:58:14 06:00:37 13° 84° (E) 06:02:59 137.9125
AIST 1 04 Dec 05:58:39 06:00:33 12° 59° (ENE) 06:02:27
SO-50 04 Dec 06:02:48 06:07:07 43° 237° (WSW) 06:11:22 436.795
CUTE-I 04 Dec 06:06:34 06:10:41 22° 90° (E) 06:14:47 437.470
BEESAT 2 04 Dec 06:14:35 06:17:22 19° 115° (ESE) 06:20:11 435.950
STRAND 1 04 Dec 06:20:23 06:25:13 44° 66° (ENE) 06:30:06 437.568
Cosmos 2491 04 Dec 06:21:36 06:28:20 26° 77° (ENE) 06:35:02 435.465 / 435.565
Cosmos 2504 04 Dec 06:21:46 06:29:47 36° 62° (ENE) 06:37:30 435.465 / 435.565
ITAMSAT 1 04 Dec 06:30:29 06:31:51 11° 314° (NW) 06:33:13 435.822/435.867
Cubesat XI-IV 04 Dec 06:31:22 06:36:14 34° 95° (E) 06:41:02 437.490
NOAA 15 04 Dec 06:36:09 06:41:08 40° 98° (E) 06:46:04 137.62
AO-85 04 Dec 06:43:00 06:45:47 16° 344° (NNW) 06:48:26 145.980
GOMX 1 04 Dec 07:04:51 07:10:15 75° 287° (WNW) 07:15:45 467.674
HORYU 2 04 Dec 07:04:54 07:09:06 42° 293° (WNW) 07:13:16 437.375
RS-15 04 Dec 07:12:38 07:22:10 30° 102° (ESE) 07:31:59 29.354- 29.394
BRITE-PL 04 Dec 07:18:22 07:22:58 32° 296° (WNW) 07:27:49 437.365/2234.400
CINEMA 3 04 Dec 07:23:59 07:28:07 26° 91° (E) 07:32:05 145.822/145.860
DOVE 4 04 Dec 07:26:24 07:31:46 85° 104° (ESE) 07:37:02 437.250
BEESAT 3 04 Dec 07:26:25 07:30:17 57° 316° (NW) 07:34:13 437.485
LilacSat-2 04 Dec 07:28:00 07:31:46 60° 287° (WNW) 07:35:28 437.200
PRISM 04 Dec 07:29:43 07:32:14 16° 58° (ENE) 07:34:47 437.425
AO-7 04 Dec 07:31:34 07:37:31 22° 322° (NW) 07:43:28 29.400- 29.500
AIST 1 04 Dec 07:34:29 07:38:55 84° 77° (ENE) 07:43:20
NOAA 18 04 Dec 07:36:43 07:42:18 72° 105° (ESE) 07:47:49 137.9125
YUBILEINY 04 Dec 07:42:56 07:51:32 60° 268° (W) 08:00:09 435.215
CUTE-I 04 Dec 07:45:55 07:51:14 66° 290° (WNW) 07:56:30 437.470
BEESAT 2 04 Dec 07:50:49 07:54:45 66° 314° (NW) 07:58:46 435.950
CUBEBUG 2 04 Dec 07:57:23 07:59:55 15° 87° (E) 08:02:24 437.445
STRAND 1 04 Dec 07:59:58 08:04:33 32° 265° (W) 08:09:09 437.568
CUTE 1.7 + AOD 2 04 Dec 08:08:06 08:12:03 37° 97° (E) 08:15:59 437.475
Cubesat XI-IV 04 Dec 08:11:22 08:16:26 44° 295° (WNW) 08:21:27 437.490
Cosmos 2504 04 Dec 08:15:07 08:23:57 71° 266° (W) 08:32:23 435.465 / 435.565
Cosmos 2491 04 Dec 08:15:19 08:24:08 86° 280° (W) 08:32:57 435.465 / 435.565
NOAA 15 04 Dec 08:16:04 08:20:52 37° 297° (WNW) 08:25:41 137.62
HO-68 04 Dec 08:17:17 08:24:18 50° 100° (E) 08:31:15 435.675
AIST 2 04 Dec 08:24:13 08:26:03 13° 110° (ESE) 08:27:52 435.215
CANX-2 04 Dec 08:25:32 08:29:44 64° 101° (ESE) 08:33:56 2200.000
AO-85 04 Dec 08:25:34 08:27:51 14° 9° (N) 08:30:05 145.980
Oscar 11 04 Dec 08:36:47 08:38:53 13° 87° (E) 08:40:58 145.826/435.025
AAUSAT CUBESAT 2 04 Dec 08:41:59 08:45:44 32° 96° (E) 08:49:28 437.432
UWE-3 04 Dec 08:43:32 08:47:14 26° 93° (E) 08:50:49 435.000/436.395/437.385
GOMX 1 04 Dec 08:44:19 08:47:31 16° 306° (NW) 08:50:47 467.674
SEEDS 04 Dec 08:55:24 08:59:36 79° 105° (ESE) 09:03:47 437.485
UNISAT 6 04 Dec 08:57:48 09:01:52 30° 64° (ENE) 09:05:53 437.425
CINEMA 3 04 Dec 09:00:45 09:05:30 49° 291° (WNW) 09:10:03 145.822/145.860
PRISM 04 Dec 09:03:00 09:07:04 71° 257° (WSW) 09:11:10 437.425
DOVE 4 04 Dec 09:05:03 09:08:49 20° 303° (WNW) 09:12:32 437.250
BEESAT 3 04 Dec 09:06:04 09:08:43 17° 338° (NNW) 09:11:23 437.485
COMPASS 1 04 Dec 09:09:51 09:14:01 77° 104° (ESE) 09:18:11 437.405
AIST 1 04 Dec 09:13:55 09:15:50 13° 279° (W) 09:17:44
NOAA 18 04 Dec 09:18:06 09:22:29 24° 304° (NW) 09:26:50 137.9125
RS-15 04 Dec 09:21:04 09:33:00 85° 128° (SE) 09:45:26 29.354- 29.394
AO-7 04 Dec 09:26:05 09:27:14 10° 348° (NNW) 09:28:23 29.400- 29.500
CUTE-I 04 Dec 09:27:35 09:30:21 14° 311° (NW) 09:33:05 437.470
TIGRISAT 04 Dec 09:27:53 09:32:25 50° 69° (ENE) 09:36:54 435.000
ANTELSAT 04 Dec 09:28:45 09:33:19 53° 70° (ENE) 09:37:51 437.575/2403.000
Cosmos 2499 04 Dec 09:28:47 09:32:24 13° 37° (NE) 09:35:58 435.465 / 435.565
ZACube-1 04 Dec 09:29:07 09:33:16 44° 98° (E) 09:37:17 437.345
BEESAT 2 04 Dec 09:30:26 09:33:16 18° 336° (NNW) 09:36:08 435.950
CUBEBUG 2 04 Dec 09:32:37 09:37:08 75° 288° (WNW) 09:41:28 437.445
FUNcube-1 04 Dec 09:38:01 09:42:12 50° 99° (E) 09:46:16 145.935
HUMSAT D 04 Dec 09:41:02 09:42:39 12° 87° (E) 09:44:15 437.325/437.525
YUBILEINY 04 Dec 09:42:11 09:46:23 14° 292° (WNW) 09:50:36 435.215
CUTE 1.7 + AOD 2 04 Dec 09:44:12 09:47:46 27° 296° (WNW) 09:51:20 437.475
JAS-2 04 Dec 09:44:26 09:49:28 27° 59° (ENE) 09:54:06 435.910
DELFI C3 04 Dec 09:58:40 10:02:13 31° 96° (E) 10:05:46 145.870
AIST 2 04 Dec 09:59:42 10:03:50 83° 130° (SE) 10:08:02 435.215
CANX-2 04 Dec 10:02:20 10:05:10 18° 300° (WNW) 10:08:01 2200.000
NANOSAT C BR1 04 Dec 10:03:04 10:05:51 17° 58° (ENE) 10:08:38 145.865
HO-68 04 Dec 10:05:15 10:11:59 44° 301° (WNW) 10:18:41 435.675
AO-85 04 Dec 10:05:52 10:09:34 30° 34° (NE) 10:13:06 145.980
QB50P2 04 Dec 10:06:27 10:09:36 20° 60° (ENE) 10:12:46 145.880/145.840
POLYITAN 1 04 Dec 10:07:07 10:10:13 20° 60° (ENE) 10:13:19 437.675
Cosmos 2504 04 Dec 10:10:14 10:15:41 18° 289° (WNW) 10:21:02 435.465 / 435.565
Oscar 11 04 Dec 10:11:16 10:15:36 81° 286° (WNW) 10:19:54 145.826/435.025
CUSAT 1 04 Dec 10:12:51 10:15:50 45° 100° (E) 10:18:27 437.405
Cosmos 2491 04 Dec 10:15:24 10:22:24 26° 305° (NW) 10:29:24 435.465 / 435.565
AAUSAT CUBESAT 2 04 Dec 10:17:32 10:21:11 31° 294° (WNW) 10:24:49 437.432
UWE-3 04 Dec 10:19:43 10:23:51 40° 292° (WNW) 10:27:51 435.000/436.395/437.385
QB50P1 04 Dec 10:20:20 10:23:50 25° 62° (ENE) 10:27:20 145.935-145.965
GONETS M04 04 Dec 10:23:19 10:29:38 21° 51° (NE) 10:35:56
DUCHIFAT 1 04 Dec 10:25:31 10:28:57 24° 62° (ENE) 10:32:24 145.980
SEEDS 04 Dec 10:32:22 10:34:46 15° 302° (WNW) 10:37:09 437.485
UNISAT 6 04 Dec 10:33:59 10:38:27 42° 262° (W) 10:42:53 437.425
DANDE 04 Dec 10:38:06 10:42:00 29° 97° (E) 10:45:06 436.750
POPSAT HIP 1 04 Dec 10:41:06 10:45:02 36° 66° (ENE) 10:49:00 437.405
BEESAT 3 04 Dec 10:46:27 10:47:53 12° 2° (N) 10:49:18 437.485
COMPASS 1 04 Dec 10:46:38 10:49:03 15° 302° (WNW) 10:51:28 437.405
TIGRISAT 04 Dec 11:05:30 11:09:20 24° 268° (W) 11:13:09 435.000
ZACube-1 04 Dec 11:05:52 11:09:20 24° 298° (WNW) 11:12:43 437.345
ANTELSAT 04 Dec 11:06:36 11:10:19 23° 268° (W) 11:14:01 437.575/2403.000
CUBEBUG 1 04 Dec 11:08:54 11:09:43 10° 85° (E) 11:10:31 437.445
CUBEBUG 2 04 Dec 11:11:03 11:12:57 13° 307° (NW) 11:14:51 437.445
BEESAT 2 04 Dec 11:11:04 11:12:35 12° 0° (N) 11:14:07 435.950
AO-7 04 Dec 11:14:03 11:16:19 11° 16° (NNE) 11:18:34 29.400- 29.500
HUMSAT D 04 Dec 11:14:45 11:18:52 82° 286° (WNW) 11:22:56 437.325/437.525
FUNcube-1 04 Dec 11:14:52 11:18:09 22° 299° (WNW) 11:21:22 145.935
Cosmos 2499 04 Dec 11:20:24 11:28:39 41° 65° (ENE) 11:36:23 435.465 / 435.565
JAS-2 04 Dec 11:27:51 11:34:16 67° 257° (WSW) 11:39:58 435.910
BUGSAT 1 04 Dec 11:29:51 11:33:50 41° 68° (ENE) 11:37:51 437.445
DELFI C3 04 Dec 11:33:32 11:37:00 29° 294° (WNW) 11:40:28 145.870
RS-15 04 Dec 11:35:08 11:46:52 51° 337° (NNW) 11:58:54 29.354- 29.394
NANOSAT C BR1 04 Dec 11:36:50 11:41:06 71° 258° (WSW) 11:45:23 145.865
AIST 2 04 Dec 11:39:25 11:42:49 24° 331° (NNW) 11:46:15 435.215
QB50P2 04 Dec 11:40:50 11:45:03 57° 259° (W) 11:49:19 145.880/145.840
POLYITAN 1 04 Dec 11:41:23 11:45:38 60° 258° (WSW) 11:49:54 437.675
AO-85 04 Dec 11:46:15 11:50:09 48° 236° (SW) 11:53:53 145.980
Oscar 11 04 Dec 11:49:09 11:51:03 13° 305° (NW) 11:52:56 145.826/435.025
HO-68 04 Dec 11:54:39 11:57:59 14° 324° (NW) 12:01:18 435.675
QB50P1 04 Dec 11:55:18 11:59:24 44° 262° (W) 12:03:32 145.935-145.965
ESTCUBE 1 04 Dec 11:56:22 12:00:42 44° 98° (E) 12:05:01 437.505/2401.250
50 SAT 04 Dec 11:56:44 11:58:47 15° 91° (E) 12:00:50 437.505
DUCHIFAT 1 04 Dec 12:00:20 12:04:25 45° 261° (W) 12:08:33 145.980
SPROUT 04 Dec 12:00:40 12:03:20 16° 89° (E) 12:05:57 437.525
Gurwin Techsat 1B 04 Dec 12:11:01 12:14:57 22° 56° (NE) 12:18:54 435.225
AISAT 04 Dec 12:11:21 12:15:18 29° 95° (E) 12:19:13 437.250
POPSAT HIP 1 04 Dec 12:17:08 12:20:53 29° 265° (W) 12:24:39 437.405
GONETS M04 04 Dec 12:19:32 12:28:17 73° 77° (ENE) 12:37:00
DANDE 04 Dec 12:21:06 12:24:39 25° 288° (WNW) 12:27:34 436.750
BEESAT 3 04 Dec 12:24:03 12:26:59 19° 26° (NNE) 12:29:55 437.485
PCSat 04 Dec 12:26:23 12:31:26 42° 116° (ESE) 12:36:32 145.827
Oscar 19 04 Dec 12:28:59 12:33:52 45° 66° (ENE) 12:38:46 437.125/150
CUBEBUG 1 04 Dec 12:42:18 12:46:46 77° 103° (ESE) 12:51:13 437.445
VELOX 1 04 Dec 12:48:08 12:52:34 61° 102° (ESE) 12:57:00 145.980
BEESAT 2 04 Dec 12:49:02 12:51:54 18° 24° (NNE) 12:54:46 435.950
HUMSAT D 04 Dec 12:52:16 12:53:47 12° 305° (NW) 12:55:19 437.325/437.525
ITAMSAT 1 04 Dec 12:55:51 12:58:41 15° 51° (NE) 13:01:32 435.822/435.867
AO-7 04 Dec 12:59:48 13:06:15 26° 43° (NE) 13:12:44 29.400- 29.500
BUGSAT 1 04 Dec 13:05:50 13:09:21 25° 267° (W) 13:12:55 437.445
DX 1 04 Dec 13:07:49 13:12:09 53° 101° (E) 13:16:27 434.975-435.025
Cosmos 2499 04 Dec 13:13:39 13:22:11 59° 269° (W) 13:30:10 435.465 / 435.565
JAS-2 04 Dec 13:17:51 13:20:17 12° 275° (W) 13:22:38 435.910
UKube-1 04 Dec 13:18:44 13:22:59 52° 101° (E) 13:27:13 .
AIST 2 04 Dec 13:20:43 13:22:43 13° 355° (N) 13:24:43 435.215
TISAT 1 04 Dec 13:28:49 13:32:09 22° 92° (E) 13:35:26 437.305
50 SAT 04 Dec 13:28:56 13:32:24 51° 289° (WNW) 13:35:52 437.505
ESTCUBE 1 04 Dec 13:33:33 13:37:21 27° 297° (WNW) 13:41:07 437.505/2401.250
SPROUT 04 Dec 13:35:25 13:39:44 68° 288° (WNW) 13:43:59 437.525
AISAT 04 Dec 13:47:41 13:51:51 38° 294° (WNW) 13:56:00 437.250
Gurwin Techsat 1B 04 Dec 13:49:02 13:54:22 78° 255° (WSW) 13:59:44 435.225
RS-15 04 Dec 13:50:56 14:02:39 45° 11° (N) 14:14:20 29.354- 29.394
BEESAT 3 04 Dec 14:01:16 14:05:16 73° 46° (NE) 14:09:15 437.485
SWISSCUBE 04 Dec 14:05:50 14:08:20 14° 87° (E) 14:10:50 437.505
Oscar 19 04 Dec 14:08:51 14:13:21 31° 265° (W) 14:17:54 437.125/150
PCSat 04 Dec 14:09:39 14:14:50 45° 317° (NW) 14:20:05 145.827
BEESAT 04 Dec 14:10:06 14:12:35 14° 87° (E) 14:15:02 436.000
GONETS M04 04 Dec 14:17:07 14:24:24 31° 279° (W) 14:31:41
CUBEBUG 1 04 Dec 14:19:41 14:22:31 17° 303° (WNW) 14:25:22 437.445
VELOX 1 04 Dec 14:25:20 14:28:39 21° 301° (WNW) 14:31:58 145.980
BEESAT 2 04 Dec 14:26:24 14:30:26 65° 46° (NE) 14:34:26 435.950
ITAMSAT 1 04 Dec 14:32:07 14:37:18 71° 71° (ENE) 14:42:32 435.822/435.867
ITUPSAT 1 04 Dec 14:35:35 14:39:22 23° 92° (E) 14:43:06 437.325
DX 1 04 Dec 14:44:37 14:48:02 22° 300° (WNW) 14:51:27 434.975-435.025
AO-7 04 Dec 14:49:37 14:57:53 78° 66° (ENE) 15:06:16 29.400- 29.500
AUBIESAT-1 04 Dec 14:52:07 14:55:59 25° 98° (E) 14:59:45 437.475
UKube-1 04 Dec 14:55:21 14:58:44 22° 300° (WNW) 15:02:06 .
AIST 2 04 Dec 15:00:02 15:02:49 17° 19° (NNE) 15:05:36 435.215
M-CUBED/EXP-1 PRIME 04 Dec 15:02:29 15:06:54 37° 102° (ESE) 15:11:10 437.505
TISAT 1 04 Dec 15:03:56 15:08:01 47° 291° (WNW) 15:12:04 437.305
Cosmos 2499 04 Dec 15:09:16 15:13:17 14° 293° (WNW) 15:17:14 435.465 / 435.565
SPROUT 04 Dec 15:13:37 15:14:51 11° 307° (NW) 15:16:04 437.525
BRITE-PL 04 Dec 15:20:18 15:22:36 14° 53° (NE) 15:24:58 437.365/2234.400
MOZHAYETS 4 04 Dec 15:31:09 15:34:40 21° 91° (E) 15:38:09
Gurwin Techsat 1B 04 Dec 15:32:45 15:35:13 13° 275° (W) 15:37:43 435.225
BEESAT 3 04 Dec 15:39:51 15:42:26 17° 246° (WSW) 15:45:00 437.485
SWISSCUBE 04 Dec 15:42:01 15:46:49 88° 284° (WNW) 15:51:34 437.505
BEESAT 04 Dec 15:46:15 15:51:03 88° 287° (WNW) 15:55:49 436.000
PCSat 04 Dec 15:55:52 15:59:37 18° 341° (NNW) 16:03:22 145.827
CUTE-I 04 Dec 15:57:01 15:59:21 13° 48° (NE) 16:01:41 437.470
BEESAT 2 04 Dec 16:04:55 16:07:51 19° 245° (WSW) 16:10:45 435.950
RS-15 04 Dec 16:05:00 16:17:28 74° 42° (NE) 16:29:39 29.354- 29.394
ITUPSAT 1 04 Dec 16:12:52 16:17:31 55° 291° (WNW) 16:22:09 437.325
ITAMSAT 1 04 Dec 16:13:30 16:17:18 20° 270° (W) 16:21:08 435.822/435.867
KKS-1 04 Dec 16:13:59 16:17:38 24° 93° (E) 16:21:16 437.445
Cubesat XI-IV 04 Dec 16:20:47 16:24:24 19° 53° (NE) 16:28:00 437.490
Cosmos 2491 04 Dec 16:23:13 16:29:02 19° 48° (NE) 16:34:50 435.465 / 435.565
NOAA 15 04 Dec 16:23:39 16:27:26 21° 55° (NE) 16:31:14 137.62
STARS 04 Dec 16:25:26 16:28:09 16° 89° (E) 16:30:51 437.465
AUBIESAT-1 04 Dec 16:26:06 16:30:36 50° 297° (WNW) 16:35:00 437.475
HORYU 2 04 Dec 16:31:07 16:35:25 46° 68° (ENE) 16:39:43 437.375
M-CUBED/EXP-1 PRIME 04 Dec 16:37:00 16:41:18 36° 301° (WNW) 16:45:33 437.505
AIST 2 04 Dec 16:38:07 16:42:14 48° 42° (NE) 16:46:21 435.215
GOMX 1 04 Dec 16:40:48 16:44:54 32° 63° (ENE) 16:49:18 467.674
LilacSat-2 04 Dec 16:41:51 16:44:20 17° 61° (ENE) 16:46:48 437.200
AO-7 04 Dec 16:44:26 16:51:29 30° 267° (W) 16:58:37 29.400- 29.500
O/OREOS (USA 219) 04 Dec 16:49:42 16:53:58 41° 110° (ESE) 16:58:15 437.305
BRITE-PL 04 Dec 16:55:58 17:00:17 84° 76° (ENE) 17:04:59 437.365/2234.400
DOVE 4 04 Dec 17:00:12 17:04:07 25° 59° (ENE) 17:08:14 437.250
CUBESAT XI-V 04 Dec 17:05:47 17:09:52 29° 94° (E) 17:13:56 437.345
HO-68 04 Dec 17:06:56 17:11:33 19° 43° (NE) 17:16:10 435.675
MOZHAYETS 4 04 Dec 17:07:41 17:12:09 54° 290° (WNW) 17:16:35
SWISSCUBE 04 Dec 17:21:06 17:23:56 16° 306° (NW) 17:26:46 437.505
BEESAT 04 Dec 17:25:19 17:28:10 16° 306° (NW) 17:31:02 436.000
NOAA 18 04 Dec 17:28:22 17:33:29 40° 63° (ENE) 17:38:40 137.9125
CUTE-I 04 Dec 17:33:06 17:38:21 58° 69° (ENE) 17:43:38 437.470
PCSat 04 Dec 17:41:59 17:45:11 15° 8° (N) 17:48:23 145.827
CANX-2 04 Dec 17:49:59 17:51:55 13° 56° (NE) 17:53:52 2200.000
KKS-1 04 Dec 17:50:06 17:54:26 47° 292° (WNW) 17:58:44 437.445
ITUPSAT 1 04 Dec 17:53:23 17:54:22 11° 311° (NW) 17:55:21 437.325
Cubesat XI-IV 04 Dec 17:58:23 18:03:46 87° 73° (ENE) 18:09:12 437.490
ISS 04 Dec 18:00:24 18:03:13 26° 147° (SSE) 18:06:01 145.825
STARS 04 Dec 18:00:34 18:05:01 72° 288° (WNW) 18:09:24 437.465
NOAA 15 04 Dec 18:01:24 18:06:39 80° 255° (WSW) 18:11:57 137.62
AUBIESAT-1 04 Dec 18:02:40 18:04:01 11° 317° (NW) 18:05:22 437.475
HORYU 2 04 Dec 18:08:30 18:12:10 24° 267° (W) 18:15:52 437.375
LilacSat-2 04 Dec 18:14:25 18:18:14 59° 259° (WSW) 18:22:04 437.200
AIST 2 04 Dec 18:16:54 18:20:34 29° 241° (WSW) 18:24:13 435.215
RS-15 04 Dec 18:18:02 18:29:29 47° 248° (WSW) 18:40:39 29.354- 29.394
SEEDS 04 Dec 18:18:23 18:20:44 15° 58° (ENE) 18:23:04 437.485
GOMX 1 04 Dec 18:18:34 18:22:54 40° 264° (W) 18:27:34 467.674
Cosmos 2491 04 Dec 18:19:19 18:28:00 64° 74° (ENE) 18:36:38 435.465 / 435.565
O/OREOS (USA 219) 04 Dec 18:29:23 18:33:29 32° 309° (NW) 18:37:36 437.305
CINEMA 3 04 Dec 18:29:45 18:34:25 42° 67° (ENE) 18:39:10 145.822/145.860
COMPASS 1 04 Dec 18:32:08 18:34:18 14° 57° (ENE) 18:36:28 437.405
DOVE 4 04 Dec 18:36:39 18:41:25 59° 260° (W) 18:46:30 437.250
BRITE-PL 04 Dec 18:37:32 18:39:36 13° 276° (W) 18:41:43 437.365/2234.400
CUBESAT XI-V 04 Dec 18:43:00 18:47:21 41° 293° (WNW) 18:51:43 437.345
HO-68 04 Dec 18:50:57 18:57:59 62° 65° (ENE) 19:05:04 435.675
YUBILEINY 04 Dec 18:54:20 19:02:00 37° 83° (E) 19:09:44 435.215
ZACube-1 04 Dec 18:56:40 18:58:12 12° 54° (NE) 18:59:45 437.345
CUBEBUG 2 04 Dec 18:59:30 19:03:22 25° 62° (ENE) 19:07:14 437.445
FUNcube-1 04 Dec 19:04:51 19:06:48 13° 55° (NE) 19:08:44 145.935
CUTE 1.7 + AOD 2 04 Dec 19:05:23 19:09:28 51° 70° (ENE) 19:13:34 437.475
Cosmos 2504 04 Dec 19:08:07 19:14:22 23° 75° (ENE) 19:20:48 435.465 / 435.565
NOAA 18 04 Dec 19:08:59 19:14:10 40° 262° (W) 19:19:24 137.9125
CUTE-I 04 Dec 19:14:21 19:18:47 26° 268° (W) 19:23:13 437.470
CANX-2 04 Dec 19:22:54 19:27:08 86° 73° (ENE) 19:31:23 2200.000
PCSat 04 Dec 19:25:40 19:30:24 29° 33° (NNE) 19:35:06 145.827
Oscar 11 04 Dec 19:36:01 19:39:13 21° 61° (ENE) 19:42:26 145.826/435.025
ISS 04 Dec 19:36:08 19:39:26 80° 167° (SSE) 19:42:46 145.825
AAUSAT CUBESAT 2 04 Dec 19:36:49 19:40:40 41° 69° (ENE) 19:44:33 437.432
STARS 04 Dec 19:38:49 19:40:35 12° 307° (NW) 19:42:21 437.465
Cubesat XI-IV 04 Dec 19:41:12 19:44:35 17° 273° (W) 19:47:58 437.490
UWE-3 04 Dec 19:44:44 19:49:06 41° 67° (ENE) 19:53:24 435.000/436.395/437.385
NOAA 15 04 Dec 19:44:46 19:47:18 13° 275° (W) 19:49:50 137.62
SEEDS 04 Dec 19:51:42 19:55:53 80° 258° (WSW) 20:00:04 437.485
STRAND 1 04 Dec 20:04:18 20:09:23 60° 101° (ESE) 20:14:24 437.568
COMPASS 1 04 Dec 20:05:09 20:09:17 84° 257° (WSW) 20:13:27 437.405
CINEMA 3 04 Dec 20:07:13 20:11:38 32° 266° (W) 20:16:10 145.822/145.860
AIST 1 04 Dec 20:09:06 20:13:03 36° 91° (E) 20:17:04
Cosmos 2491 04 Dec 20:16:44 20:24:23 36° 277° (W) 20:32:00 435.465 / 435.565
SO-50 04 Dec 20:22:38 20:25:50 18° 113° (ESE) 20:28:59 436.795
ZACube-1 04 Dec 20:29:10 20:33:42 67° 73° (ENE) 20:38:10 437.345
CUBEBUG 2 04 Dec 20:35:05 20:39:44 52° 261° (W) 20:44:22 437.445
RS-15 04 Dec 20:36:06 20:38:23 11° 273° (W) 20:40:39 29.354- 29.394
HUMSAT D 04 Dec 20:36:33 20:39:27 18° 60° (ENE) 20:42:20 437.325/437.525
CUSAT 1 04 Dec 20:37:19 20:40:29 51° 76° (ENE) 20:44:30 437.405
FUNcube-1 04 Dec 20:37:46 20:42:18 75° 73° (ENE) 20:46:47 145.935
HO-68 04 Dec 20:39:47 20:46:08 34° 266° (W) 20:52:35 435.675
PRISM 04 Dec 20:41:12 20:42:33 11° 87° (E) 20:43:55 437.425
CUTE 1.7 + AOD 2 04 Dec 20:42:30 20:45:36 20° 269° (W) 20:48:43 437.475
DELFI C3 04 Dec 20:49:01 20:52:37 36° 68° (ENE) 20:56:14 145.870
YUBILEINY 04 Dec 20:49:44 20:58:21 64° 286° (WNW) 21:07:06 435.215
Cosmos 2504 04 Dec 20:58:02 21:06:29 86° 98° (E) 21:15:24 435.465 / 435.565
CANX-2 04 Dec 21:01:58 21:03:36 12° 274° (W) 21:05:16 2200.000
PCSat 04 Dec 21:08:55 21:14:23 80° 236° (SW) 21:19:49 145.827
DANDE 04 Dec 21:09:14 21:11:24 22° 71° (ENE) 21:13:44 436.750
Oscar 11 04 Dec 21:10:47 21:15:01 56° 259° (W) 21:19:18 145.826/435.025
ISS 04 Dec 21:12:39 21:15:59 84° 6° (N) 21:19:19 145.825
AAUSAT CUBESAT 2 04 Dec 21:13:00 21:16:19 23° 267° (W) 21:19:39 437.432
UWE-3 04 Dec 21:21:35 21:25:39 29° 266° (W) 21:29:41 435.000/436.395/437.385
ESTCUBE 1 04 Dec 21:27:05 21:29:01 13° 53° (NE) 21:30:55 437.505/2401.250
STRAND 1 04 Dec 21:44:06 21:48:13 25° 301° (WNW) 21:52:20 437.568
COMPASS 1 04 Dec 21:45:09 21:45:32 10° 275° (W) 21:45:55 437.405
AIST 1 04 Dec 21:47:01 21:50:44 27° 292° (WNW) 21:54:31
SO-50 04 Dec 22:00:58 22:05:45 85° 312° (NW) 22:10:27 436.795
ZACube-1 04 Dec 22:07:23 22:10:25 17° 271° (W) 22:13:26 437.345
CUBEBUG 1 04 Dec 22:08:32 22:11:30 18° 58° (ENE) 22:14:29 437.445
HUMSAT D 04 Dec 22:10:30 22:14:40 61° 259° (WSW) 22:18:50 437.325/437.525
PRISM 04 Dec 22:14:18 22:18:29 89° 290° (WNW) 22:22:39 437.425
VELOX 1 04 Dec 22:15:56 22:18:38 16° 56° (NE) 22:21:20 145.980
FUNcube-1 04 Dec 22:16:20 22:19:03 16° 272° (W) 22:21:44 145.935
CUSAT 1 04 Dec 22:20:33 22:22:14 13° 267° (W) 22:24:05 437.405
UNISAT 6 04 Dec 22:20:36 22:24:29 29° 94° (E) 22:28:17 437.425
DELFI C3 04 Dec 22:24:17 22:27:32 24° 266° (W) 22:30:49 145.870
DX 1 04 Dec 22:34:29 22:36:48 14° 55° (NE) 22:39:07 434.975-435.025
50 SAT 04 Dec 22:37:16 22:39:19 15° 60° (ENE) 22:41:22 437.505
UKube-1 04 Dec 22:44:38 22:46:46 14° 54° (NE) 22:48:55 .
ISS 04 Dec 22:49:13 22:52:23 43° 206° (SSW) 22:55:33 145.825
TIGRISAT 04 Dec 22:50:48 22:55:11 51° 100° (E) 22:59:25 435.000
YUBILEINY 04 Dec 22:51:33 22:57:20 19° 313° (NW) 23:03:09 435.215
ANTELSAT 04 Dec 22:51:52 22:56:17 55° 100° (E) 23:00:33 437.575/2403.000
DANDE 04 Dec 22:52:20 22:53:58 15° 266° (W) 22:55:41 436.750
PCSat 04 Dec 22:53:50 22:56:57 16° 255° (WSW) 23:00:03 145.827
Cosmos 2504 04 Dec 22:53:54 23:01:05 29° 303° (WNW) 23:08:35 435.465 / 435.565
SPROUT 04 Dec 22:58:39 23:02:06 24° 62° (ENE) 23:05:35 437.525
ESTCUBE 1 04 Dec 23:00:35 23:05:03 74° 74° (ENE) 23:09:32 437.505/2401.250
AISAT 04 Dec 23:13:15 23:17:30 48° 69° (ENE) 23:21:49 437.250
NANOSAT C BR1 04 Dec 23:17:28 23:19:35 13° 87° (E) 23:21:41 145.865
QB50P2 04 Dec 23:21:25 23:24:11 17° 89° (E) 23:26:57 145.880/145.840
POLYITAN 1 04 Dec 23:22:05 23:24:45 16° 89° (E) 23:27:23 437.675
GONETS M04 04 Dec 23:35:00 23:40:03 17° 71° (ENE) 23:45:05
QB50P1 04 Dec 23:35:09 23:38:25 21° 92° (E) 23:41:39 145.935-145.965
DUCHIFAT 1 04 Dec 23:39:37 23:42:47 20° 91° (E) 23:45:55 145.980
SO-50 04 Dec 23:42:56 23:46:51 25° 334° (NNW) 23:50:43 436.795
CUBEBUG 1 04 Dec 23:42:58 23:47:19 69° 258° (WSW) 23:51:44 437.445
VELOX 1 04 Dec 23:50:06 23:54:31 82° 255° (WSW) 23:59:00 145.980
PRISM 04 Dec 23:51:07 23:53:09 14° 305° (NW) 23:55:13 437.425
POPSAT HIP 1 04 Dec 23:56:09 00:00:00 32° 96° (E) 00:03:49 437.405
UNISAT 6 04 Dec 23:57:10 00:01:18 38° 294° (WNW) 00:05:20 437.425
Cosmos 2499 05 Dec 00:03:50 00:10:48 28° 78° (ENE) 00:17:55 435.465 / 435.565
DX 1 05 Dec 00:07:59 00:12:21 88° 66° (ENE) 00:16:45 434.975-435.025
50 SAT 05 Dec 00:08:47 00:12:14 55° 259° (WSW) 00:15:43 437.505
AUBIESAT-1 05 Dec 00:10:30 00:12:28 13° 45° (NE) 00:14:27 437.475
JAS-2 05 Dec 00:16:09 00:21:21 66° 103° (ESE) 00:26:37 435.910
UKube-1 05 Dec 00:17:49 00:22:08 85° 77° (ENE) 00:26:30 .
M-CUBED/EXP-1 PRIME 05 Dec 00:20:29 00:23:18 17° 49° (NE) 00:26:14 437.505
TISAT 1 05 Dec 00:24:56 00:28:44 32° 65° (ENE) 00:32:32 437.305
ISS 05 Dec 00:27:28 00:28:14 11° 224° (SW) 00:29:00 145.825
TIGRISAT 05 Dec 00:28:04 00:31:34 23° 299° (WNW) 00:35:00 435.000
ANTELSAT 05 Dec 00:29:15 00:32:39 22° 300° (WNW) 00:35:58 437.575/2403.000
